NOAA 16 DEB, 41154

Orbit data source: Space-Track

NOAA 16 DEB, 41154 is space debris in SSO originally from a launch on Thu, 21 Sep 2000 UTC launched from the Air Force Western Test Range (AFWTR). Debris objects in space refer to the collection of defunct objects orbiting the Earth. Examples of debris include non-operational satellites, rocket bodies, and fragments generated from explosions, collisions, or faulty payload assembly.

Loading next visibility...
Identifier
41154, 2000-055CM
Orbit
SSO
Country
Flag of USUS
Related business
Manufacturer
Unknown
Mission
Spacecraft
Bus & Motor
Unknown
Mass
Unknown
Launch date (UTC)
2000-09-21 (26 years ago)
Launch vehicle
Unknown
Launch site
Air Force Western Test Range (AFWTR)
Object type
Payload
Rocket body
Debris
Shape & HBR
Unknown shape, 0.1 m
Radar Cross Section
Small (<0.1 m²)

Expand to show TLE details & history
Last TLE update: 1 day ago

TLE from 1 day ago
0 NOAA 16 DEB
1 41154U 00055CM  26125.28271861  .00003154  00000-0  17200-2 0  9991
2 41154  98.7607 147.2727 0058553  99.6950 261.0842 14.11931040533545
Epoch: 2026-05-05T06:47Z
TLE epoch observation values (Epoch: 2026-05-05T06:47:06.887Z)
Latitude
-0.00007°
Longitude
-177.66578°
Altitude
862.478 km
Speed
7.418 km/s
True Right ascension
09h 49m 05s
True Declination
0° 00' 00"
Sunlit
Object was in daylight at epoch
Visualization orbit readout
Latitude
Unknown
Longitude
Unknown
Altitude
Unknown
Speed
Unknown
Apparent Right ascension
Unknown
Apparent Declination
Unknown
Sunlit
N/A
Visualization observer readout
Local Sidereal Time
02:16:57
Azimuth
Unknown
Elevation
Unknown
Doppler factor
Unknown
Orbital elements
Apogee altitude
892.266 km
Perigee altitude
807.62 km
Semi-major axis
7,228.08 km
Eccentricity
0.00586
Inclination
98.7607°
RAAN
147.2727°
Arg. of periapsis
99.695°
True anomaly
260.42211°
Mean anomaly
261.0842°
Eccentric anomaly
260.75308°
Mean motion
3.5319 °/min
Orbital period
101.93 mins
BSTAR
0.00172
Loading maneuver chart data...
Computing Atmospheric mass density...
Loading historical data...
Loading historical data...
Loading historical data...
Loading historical data...
Loading historical data...
Loading historical data...
Loading historical data...

Documentation

Showing up to 5 results
|